Regional Weather Roundup
Issued by NWS

Home | Current Version | Previous Version | Graphics & Text | Print | Product List | Glossary On
Versions: 1 2 3 4 5 6 7 8 9 10 11 12 13 14 15 16 17 18 19 20 21 22 23 24 25 26 27
000
ASUS45 KPSR 090210
RWRAZ

ARIZONA HOURLY REGIONAL WEATHER ROUNDUP
NATIONAL WEATHER SERVICE PHOENIX AZ
700 PM MST THU DEC 08 2016

NOTE: FAIR INDICATES FEW OR NO CLOUDS BELOW 12,000 FEET WITH NO
SIGNIFICANT WEATHER AND/OR OBSTRUCTIONS TO VISIBILITY.

AZZ001>003-036-090300-
NORTHWEST ARIZONA

CITY           SKY/WX    TMP DP  RH WIND       PRES   REMARKS
BULLHEAD CITY  MOCLDY    54  12  19 NE5       30.23R
KINGMAN        PTCLDY    45  19  35 S9        30.23R
$$

AZZ004>008-015-016-018-090300-
NORTH CENTRAL ARIZONA

CITY           SKY/WX    TMP DP  RH WIND       PRES   REMARKS
GRAND CANYON   CLEAR     29  23  78 CALM      30.28R
WILLIAMS       CLEAR     34  25  69 SE8       30.27S WCI  27
PRESCOTT       CLEAR     41  30  65 CALM      30.25R
FLAGSTAFF      CLEAR     31  22  69 CALM      30.28R
PAYSON         CLEAR     45  32  61 CALM      30.30R
PAGE           CLEAR     37   5  26 S3        30.26R
$$

AZZ009>014-017-090300-
NORTHEAST ARIZONA

CITY           SKY/WX    TMP DP  RH WIND       PRES   REMARKS
WINSLOW        CLEAR     34  15  46 CALM      30.27R
SAINT JOHNS    CLEAR     37  25  61 S5        30.24R WCI  33
WINDOW ROCK    PTCLDY    34  17  50 E5        30.29R WCI  30
SHOW LOW       CLEAR     39  27  60 SW9       30.28R WCI  33
$$

AZZ023-090300-
GREATER PHOENIX AREA

CITY           SKY/WX    TMP DP  RH WIND       PRES   REMARKS
PHOENIX        PTCLDY    61  42  49 VRB3      30.17R
BUCKEYE        CLEAR     55  39  54 W5        30.20S
GLENDALE       PTCLDY    61  39  44 CALM      30.20R
LUKE AFB       CLEAR     58  41  54 W6        30.17R
DEER VALLEY    CLEAR     58  41  53 N3        30.18R
SCOTTSDALE     CLEAR     61  41  47 CALM      30.20R
MESA-FALCON    CLEAR    N/A N/A N/A W7        30.16R
MESA-GATEWAY   PTCLDY    57  39  51 CALM      30.19R
CHANDLER       CLEAR     59  41  51 W7        30.18R
$$

AZZ027-028-090300-
SOUTHWEST MARICOPA COUNTY AND PINAL COUNTY

CITY           SKY/WX    TMP DP  RH WIND       PRES   REMARKS
CASA GRANDE    NOT AVBL
GILA BEND      CLEAR     58  32  37 W3        30.18R
$$

AZZ503-504-507>509-090300-
SOUTHEAST ARIZONA

CITY           SKY/WX    TMP DP  RH WIND       PRES   REMARKS
TUCSON         CLEAR     59  37  44 N5        30.21R
DAVIS-MONTHAN  CLEAR     55  36  48 NW6       30.20R
RYAN FIELD     CLEAR     55  37  50 W6        30.21R
NOGALES        CLEAR     49  22  34 NE5       30.21
SIERRA VISTA   CLEAR     49  30  48 SW6       30.25R
DOUGLAS        CLEAR     52  35  52 E9        30.23R
SAFFORD        CLEAR     51  33  50 E8        30.23R
$$

AZZ020-021-025-026-031-090300-
SOUTHWEST ARIZONA

CITY           SKY/WX    TMP DP  RH WIND       PRES   REMARKS
YUMA           CLEAR     61  17  18 N7        30.19R
$$

CAZ031-033-041-043-047-048-061-090300-
SOUTHERN CALIFORNIA

CITY           SKY/WX    TMP DP  RH WIND       PRES   REMARKS
DOWNTOWN L.A.  CLEAR     58  51  78 CALM      30.21S
L.A. AIRPORT   PTCLDY    60  54  80 SW9       30.22R
SAN DIEGO      PTCLDY    61  52  72 NW5       30.24R
BURBANK        CLEAR     60  40  47 S5        30.21R
ONTARIO        PTCLDY    58  43  57 SW3       30.22R
RIVERSIDE      CLEAR     60  44  55 W5        30.22R
PALM SPRINGS   CLEAR     60  29  30 CALM      30.22R
EL CENTRO NAS  CLEAR     57  32  38 N5        30.21R
IMPERIAL       CLEAR     60  28  29 N3        30.19R
BLYTHE         MOCLDY    58  19  22 E3        30.21R
NEEDLES        CLOUDY    56  10  16 W7        30.22R
$$

NVZ020-UTZ003-090300-
SOUTHERN NEVADA-UTAH

CITY           SKY/WX    TMP DP  RH WIND       PRES   REMARKS
LAS VEGAS      MOCLDY    52   7  16 CALM      30.23R
SALT LAKE CITY CLOUDY    27  23  85 NW7       30.14F WCI  19
$$

NMZ009-TXZ055-090300-
NEW MEXICO-WEST TEXAS

CITY           SKY/WX    TMP DP  RH WIND       PRES   REMARKS
ALBUQUERQUE    CLOUDY    36  16  44 CALM      30.35R
EL PASO        PTCLDY    34  23  64 E13       30.41R WCI  25
$$


........................KEY........................
SKY/WX - SKY CONDITION/WEATHER
TMP    - TEMPERATURE IN FAHRENHEIT
DP     - DEW POINT IN FAHRENHEIT
RH     - RELATIVE HUMIDITY IN PERCENT
WIND   - DIRECTION AND SPEED IN MILES PER HOUR (MPH)
VRB    - VARIABLE WIND DIRECTION
PRES   - MEAN SEA LEVEL PRESSURE IN INCHES OF MERCURY
         F - FALLING PRESSURE   R - RISING PRESSURE
         S - STEADY PRESSURE
VSB    - VISIBILITY IN MILES
HX     - HEAT INDEX IN FAHRENHEIT
WCI    - WIND CHILL INDEX IN FAHRENHEIT
TC     - TEMPERATURE IN CELSIUS WHICH IS ALSO KNOWN AS
         TEMPERATURE IN CENTIGRADE
AFB    - AIR FORCE BASE
         LUKE AFB IS LUKE AIR FORCE BASE
         DAVIS-MONTHAN IS DAVIS-MONTHAN AIR FORCE BASE
NAS    - NAVAL AIR STATION
         EL CENTRO NAS IS EL CENTRO NAVAL AIR STATION
N/A    - NOT AVAILABLE





USA.gov is the U.S. government's official web portal to all federal, state and local government web resources and services.